Data supplied by UK-AIR on 21/3/2024
All Data GMT hour ending 
Status: R =Ratified P=Provisional,P*=As supplied
,,Belfast Stockman's Lane,,,,,,,,,,,,,,,,,,,,,,,
Date,time,"PM<sub>10</sub> particulate matter (Hourly measured)",status,unit,"Nitric oxide",status,unit,"Nitrogen dioxide",status,unit,"Nitrogen oxides as nitrogen dioxide",status,unit
 
01-01-2023,01:00,13.237,R,ugm-3 (Ref.eq),5.20140,R,ugm-3,19.65744,R,ugm-3,27.63280,R,ugm-3
01-01-2023,02:00,11.305,R,ugm-3 (Ref.eq),17.10290,R,ugm-3,27.91501,R,ugm-3,54.13909,R,ugm-3
01-01-2023,03:00,17.102,R,ugm-3 (Ref.eq),11.30643,R,ugm-3,26.24999,R,ugm-3,43.58627,R,ugm-3
01-01-2023,04:00,11.305,R,ugm-3 (Ref.eq),5.58710,R,ugm-3,14.94100,R,ugm-3,23.50776,R,ugm-3
01-01-2023,05:00,8.406,R,ugm-3 (Ref.eq),1.19015,R,ugm-3,4.28814,R,ugm-3,6.11301,R,ugm-3
01-01-2023,06:00,13.237,R,ugm-3 (Ref.eq),2.08276,R,ugm-3,6.84573,R,ugm-3,10.03926,R,ugm-3
01-01-2023,07:00,14.203,R,ugm-3 (Ref.eq),1.52075,R,ugm-3,6.86259,R,ugm-3,9.19437,R,ugm-3
01-01-2023,08:00,9.372,R,ugm-3 (Ref.eq),6.11605,R,ugm-3,11.94318,R,ugm-3,21.32099,R,ugm-3
01-01-2023,09:00,11.305,R,ugm-3 (Ref.eq),16.00091,R,ugm-3,20.59257,R,ugm-3,45.12695,R,ugm-3
01-01-2023,10:00,14.203,R,ugm-3 (Ref.eq),27.57182,R,ugm-3,30.58296,R,ugm-3,72.85915,R,ugm-3
01-01-2023,11:00,18.068,R,ugm-3 (Ref.eq),41.52302,R,ugm-3,30.06510,R,ugm-3,93.73285,R,ugm-3
01-01-2023,12:00,10.338,R,ugm-3 (Ref.eq),22.41450,R,ugm-3,29.74366,R,ugm-3,64.11208,R,ugm-3
01-01-2023,13:00,19.034,R,ugm-3 (Ref.eq),53.29229,R,ugm-3,44.72128,R,ugm-3,126.43498,R,ugm-3
01-01-2023,14:00,10.338,R,ugm-3 (Ref.eq),85.22799,R,ugm-3,59.51807,R,ugm-3,190.19917,R,ugm-3
01-01-2023,15:00,12.271,R,ugm-3 (Ref.eq),101.89009,R,ugm-3,73.08321,R,ugm-3,229.31250,R,ugm-3
01-01-2023,16:00,19.034,R,ugm-3 (Ref.eq),91.07956,R,ugm-3,70.27640,R,ugm-3,209.92978,R,ugm-3
01-01-2023,17:00,20.000,R,ugm-3 (Ref.eq),60.33401,R,ugm-3,56.58700,R,ugm-3,149.09786,R,ugm-3
01-01-2023,18:00,12.271,R,ugm-3 (Ref.eq),36.10123,R,ugm-3,48.86496,R,ugm-3,104.21940,R,ugm-3
01-01-2023,19:00,20.967,R,ugm-3 (Ref.eq),33.09279,R,ugm-3,44.78045,R,ugm-3,95.52203,R,ugm-3
01-01-2023,20:00,16.136,R,ugm-3 (Ref.eq),20.06726,R,ugm-3,31.45414,R,ugm-3,62.22351,R,ugm-3
01-01-2023,21:00,17.102,R,ugm-3 (Ref.eq),23.60465,R,ugm-3,31.19894,R,ugm-3,67.39223,R,ugm-3
01-01-2023,22:00,11.305,R,ugm-3 (Ref.eq),17.25718,R,ugm-3,24.87872,R,ugm-3,51.33936,R,ugm-3
01-01-2023,23:00,12.271,R,ugm-3 (Ref.eq),17.22412,R,ugm-3,24.08453,R,ugm-3,50.49447,R,ugm-3
01-01-2023,24:00,16.136,R,ugm-3 (Ref.eq),14.90994,R,ugm-3,22.26536,R,ugm-3,45.12695,R,ugm-3
02-01-2023,01:00,18.068,R,ugm-3 (Ref.eq),12.30676,R,ugm-3,20.85308,R,ugm-3,39.72319,R,ugm-3
02-01-2023,02:00,19.034,R,ugm-3 (Ref.eq),6.92531,R,ugm-3,16.10662,R,ugm-3,26.72529,R,ugm-3
02-01-2023,03:00,15.169,R,ugm-3 (Ref.eq),5.32631,R,ugm-3,14.31417,R,ugm-3,22.48107,R,ugm-3
02-01-2023,04:00,17.102,R,ugm-3 (Ref.eq),7.14586,R,ugm-3,15.80161,R,ugm-3,26.75844,R,ugm-3
02-01-2023,05:00,13.237,R,ugm-3 (Ref.eq),4.13534,R,ugm-3,15.09583,R,ugm-3,21.43660,R,ugm-3
02-01-2023,06:00,11.305,R,ugm-3 (Ref.eq),4.33383,R,ugm-3,12.00621,R,ugm-3,18.65133,R,ugm-3
02-01-2023,07:00,9.372,R,ugm-3 (Ref.eq),5.42556,R,ugm-3,16.54936,R,ugm-3,24.86844,R,ugm-3
02-01-2023,08:00,8.406,R,ugm-3 (Ref.eq),12.96842,R,ugm-3,24.87856,R,ugm-3,44.76319,R,ugm-3
02-01-2023,09:00,9.372,R,ugm-3 (Ref.eq),17.60000,R,ugm-3,30.06192,R,ugm-3,57.04820,R,ugm-3
02-01-2023,10:00,15.169,R,ugm-3 (Ref.eq),56.80299,R,ugm-3,45.05419,R,ugm-3,132.15089,R,ugm-3
02-01-2023,11:00,11.305,R,ugm-3 (Ref.eq),46.28269,R,ugm-3,47.55718,R,ugm-3,118.52299,R,ugm-3
02-01-2023,12:00,17.102,R,ugm-3 (Ref.eq),57.13382,R,ugm-3,55.14088,R,ugm-3,142.74485,R,ugm-3
02-01-2023,13:00,9.372,R,ugm-3 (Ref.eq),60.37592,R,ugm-3,56.58578,R,ugm-3,149.16091,R,ugm-3
02-01-2023,14:00,13.237,R,ugm-3 (Ref.eq),47.70525,R,ugm-3,42.93885,R,ugm-3,116.08588,R,ugm-3
02-01-2023,15:00,13.237,R,ugm-3 (Ref.eq),71.32630,R,ugm-3,50.04124,R,ugm-3,159.40670,R,ugm-3
02-01-2023,16:00,18.068,R,ugm-3 (Ref.eq),65.53683,R,ugm-3,58.91831,R,ugm-3,159.40670,R,ugm-3
02-01-2023,17:00,20.000,R,ugm-3 (Ref.eq),80.29171,R,ugm-3,67.42976,R,ugm-3,190.54199,R,ugm-3
02-01-2023,18:00,32.561,R,ugm-3 (Ref.eq),151.51876,R,ugm-3,77.78393,R,ugm-3,310.10945,R,ugm-3
02-01-2023,19:00,37.392,R,ugm-3 (Ref.eq),114.36689,R,ugm-3,67.10718,R,ugm-3,242.46729,R,ugm-3
02-01-2023,20:00,65.412,R,ugm-3 (Ref.eq),181.75634,R,ugm-3,71.30926,R,ugm-3,349.99843,R,ugm-3
02-01-2023,21:00,73.141,R,ugm-3 (Ref.eq),234.42400,R,ugm-3,82.76549,R,ugm-3,442.21061,R,ugm-3
02-01-2023,22:00,77.006,R,ugm-3 (Ref.eq),201.90371,R,ugm-3,75.08367,R,ugm-3,384.66504,R,ugm-3
02-01-2023,23:00,71.209,R,ugm-3 (Ref.eq),229.56084,R,ugm-3,69.58142,R,ugm-3,421.56980,R,ugm-3
02-01-2023,24:00,65.412,R,ugm-3 (Ref.eq),225.45859,R,ugm-3,71.24593,R,ugm-3,416.94427,R,ugm-3
03-01-2023,01:00,5.507,R,ugm-3 (Ref.eq),27.63219,R,ugm-3,28.37735,R,ugm-3,70.74612,R,ugm-3
03-01-2023,02:00,13.237,R,ugm-3 (Ref.eq),2.03048,R,ugm-3,9.69527,R,ugm-3,12.80863,R,ugm-3
03-01-2023,03:00,13.237,R,ugm-3 (Ref.eq),2.18497,R,ugm-3,6.00736,R,ugm-3,9.35760,R,ugm-3
03-01-2023,04:00,17.102,R,ugm-3 (Ref.eq),1.29112,R,ugm-3,2.64934,R,ugm-3,4.62903,R,ugm-3
03-01-2023,05:00,8.406,R,ugm-3 (Ref.eq),1.05938,R,ugm-3,1.61098,R,ugm-3,3.23534,R,ugm-3
03-01-2023,06:00,5.507,R,ugm-3 (Ref.eq),2.44982,R,ugm-3,5.85014,R,ugm-3,9.60647,R,ugm-3
03-01-2023,07:00,6.474,R,ugm-3 (Ref.eq),6.02523,R,ugm-3,16.84327,R,ugm-3,26.08183,R,ugm-3
03-01-2023,08:00,15.169,R,ugm-3 (Ref.eq),53.69739,R,ugm-3,44.19187,R,ugm-3,126.52672,R,ugm-3
03-01-2023,09:00,17.102,R,ugm-3 (Ref.eq),42.73941,R,ugm-3,36.40528,R,ugm-3,101.93813,R,ugm-3
03-01-2023,10:00,15.169,R,ugm-3 (Ref.eq),45.32166,R,ugm-3,41.65417,R,ugm-3,111.14640,R,ugm-3
03-01-2023,11:00,16.136,R,ugm-3 (Ref.eq),67.60177,R,ugm-3,48.90417,R,ugm-3,152.55877,R,ugm-3
03-01-2023,12:00,28.696,R,ugm-3 (Ref.eq),174.33443,R,ugm-3,92.46085,R,ugm-3,359.76991,R,ugm-3
03-01-2023,13:00,19.034,R,ugm-3 (Ref.eq),78.36111,R,ugm-3,54.40707,R,ugm-3,174.55909,R,ugm-3
03-01-2023,14:00,16.136,R,ugm-3 (Ref.eq),70.18401,R,ugm-3,58.73232,R,ugm-3,166.34630,R,ugm-3
03-01-2023,15:00,20.967,R,ugm-3 (Ref.eq),167.48155,R,ugm-3,92.36648,R,ugm-3,349.16795,R,ugm-3
03-01-2023,16:00,14.203,R,ugm-3 (Ref.eq),126.72848,R,ugm-3,83.02908,R,ugm-3,277.34338,R,ugm-3
03-01-2023,17:00,12.271,R,ugm-3 (Ref.eq),75.91129,R,ugm-3,58.16340,R,ugm-3,174.55909,R,ugm-3
03-01-2023,18:00,14.203,R,ugm-3 (Ref.eq),38.23704,R,ugm-3,37.03723,R,ugm-3,95.66654,R,ugm-3
03-01-2023,19:00,12.271,R,ugm-3 (Ref.eq),21.08831,R,ugm-3,25.50299,R,ugm-3,57.83794,R,ugm-3
03-01-2023,20:00,8.406,R,ugm-3 (Ref.eq),12.28220,R,ugm-3,16.00969,R,ugm-3,34.84213,R,ugm-3
03-01-2023,21:00,10.338,R,ugm-3 (Ref.eq),11.85183,R,ugm-3,24.38463,R,ugm-3,42.55718,R,ugm-3
03-01-2023,22:00,7.440,R,ugm-3 (Ref.eq),5.69417,R,ugm-3,10.78065,R,ugm-3,19.51160,R,ugm-3
03-01-2023,23:00,5.507,R,ugm-3 (Ref.eq),1.82081,R,ugm-3,3.62904,R,ugm-3,6.42091,R,ugm-3
03-01-2023,24:00,8.406,R,ugm-3 (Ref.eq),1.29112,R,ugm-3,1.15610,R,ugm-3,3.13579,R,ugm-3
04-01-2023,01:00,9.372,R,ugm-3 (Ref.eq),0.88343,R,ugm-3,3.02889,R,ugm-3,4.38346,R,ugm-3
04-01-2023,02:00,8.406,R,ugm-3 (Ref.eq),0.70674,R,ugm-3,0.31108,R,ugm-3,1.39474,R,ugm-3
04-01-2023,03:00,14.203,R,ugm-3 (Ref.eq),0.69570,R,ugm-3,7.15226,R,ugm-3,8.21899,R,ugm-3
04-01-2023,04:00,15.169,R,ugm-3 (Ref.eq),0.69570,R,ugm-3,0.52726,R,ugm-3,1.59399,R,ugm-3
04-01-2023,05:00,14.203,R,ugm-3 (Ref.eq),0.62944,R,ugm-3,0.42961,R,ugm-3,1.39474,R,ugm-3
04-01-2023,06:00,12.271,R,ugm-3 (Ref.eq),1.62330,R,ugm-3,1.39631,R,ugm-3,3.88534,R,ugm-3
04-01-2023,07:00,15.169,R,ugm-3 (Ref.eq),9.34227,R,ugm-3,11.17916,R,ugm-3,25.50378,R,ugm-3
04-01-2023,08:00,18.068,R,ugm-3 (Ref.eq),17.55817,R,ugm-3,19.70194,R,ugm-3,46.62410,R,ugm-3
04-01-2023,09:00,16.136,R,ugm-3 (Ref.eq),27.76179,R,ugm-3,18.90061,R,ugm-3,61.46810,R,ugm-3
04-01-2023,10:00,13.237,R,ugm-3 (Ref.eq),25.67469,R,ugm-3,29.52279,R,ugm-3,68.89010,R,ugm-3
04-01-2023,11:00,16.136,R,ugm-3 (Ref.eq),32.49919,R,ugm-3,30.51548,R,ugm-3,80.34687,R,ugm-3
04-01-2023,12:00,16.136,R,ugm-3 (Ref.eq),26.20475,R,ugm-3,24.47602,R,ugm-3,64.65607,R,ugm-3
04-01-2023,13:00,16.136,R,ugm-3 (Ref.eq),41.87459,R,ugm-3,36.21433,R,ugm-3,100.42114,R,ugm-3
04-01-2023,14:00,16.136,R,ugm-3 (Ref.eq),32.00226,R,ugm-3,35.95976,R,ugm-3,85.02921,R,ugm-3
04-01-2023,15:00,16.136,R,ugm-3 (Ref.eq),32.99612,R,ugm-3,27.26293,R,ugm-3,77.85627,R,ugm-3
04-01-2023,16:00,13.237,R,ugm-3 (Ref.eq),40.78134,R,ugm-3,43.17069,R,ugm-3,105.70122,R,ugm-3
04-01-2023,17:00,14.203,R,ugm-3 (Ref.eq),41.80833,R,ugm-3,36.11667,R,ugm-3,100.22189,R,ugm-3
04-01-2023,18:00,17.102,R,ugm-3 (Ref.eq),28.35811,R,ugm-3,30.38948,R,ugm-3,73.87130,R,ugm-3
04-01-2023,19:00,12.271,R,ugm-3 (Ref.eq),21.30171,R,ugm-3,16.10385,R,ugm-3,48.76602,R,ugm-3
04-01-2023,20:00,16.136,R,ugm-3 (Ref.eq),15.07353,R,ugm-3,25.90266,R,ugm-3,49.01508,R,ugm-3
04-01-2023,21:00,13.237,R,ugm-3 (Ref.eq),10.00485,R,ugm-3,15.94143,R,ugm-3,31.28198,R,ugm-3
04-01-2023,22:00,13.237,R,ugm-3 (Ref.eq),7.42081,R,ugm-3,13.37818,R,ugm-3,24.75660,R,ugm-3
04-01-2023,23:00,13.237,R,ugm-3 (Ref.eq),7.81836,R,ugm-3,12.17088,R,ugm-3,24.15886,R,ugm-3
04-01-2023,24:00,13.237,R,ugm-3 (Ref.eq),6.29444,R,ugm-3,8.43044,R,ugm-3,18.08178,R,ugm-3
05-01-2023,01:00,9.372,R,ugm-3 (Ref.eq),6.98394,R,ugm-3,10.76004,R,ugm-3,21.46859,R,ugm-3
05-01-2023,02:00,9.372,R,ugm-3 (Ref.eq),1.94489,R,ugm-3,3.46509,R,ugm-3,6.44722,R,ugm-3
05-01-2023,03:00,9.372,R,ugm-3 (Ref.eq),1.45867,R,ugm-3,3.99461,R,ugm-3,6.23121,R,ugm-3
05-01-2023,04:00,9.372,R,ugm-3 (Ref.eq),2.65213,R,ugm-3,8.94422,R,ugm-3,13.01076,R,ugm-3
05-01-2023,05:00,12.271,R,ugm-3 (Ref.eq),3.77928,R,ugm-3,10.60572,R,ugm-3,16.40054,R,ugm-3
05-01-2023,06:00,15.169,R,ugm-3 (Ref.eq),12.19979,R,ugm-3,15.29139,R,ugm-3,33.99747,R,ugm-3
05-01-2023,07:00,19.034,R,ugm-3 (Ref.eq),60.36906,R,ugm-3,43.12620,R,ugm-3,135.69079,R,ugm-3
05-01-2023,08:00,25.798,R,ugm-3 (Ref.eq),214.55713,R,ugm-3,81.97764,R,ugm-3,410.96065,R,ugm-3
05-01-2023,09:00,27.730,R,ugm-3 (Ref.eq),243.89629,R,ugm-3,98.25679,R,ugm-3,472.22589,R,ugm-3
05-01-2023,10:00,27.730,R,ugm-3 (Ref.eq),166.75253,R,ugm-3,68.33919,R,ugm-3,324.02283,R,ugm-3
05-01-2023,11:00,20.967,R,ugm-3 (Ref.eq),68.85587,R,ugm-3,42.47599,R,ugm-3,148.05351,R,ugm-3
05-01-2023,12:00,13.237,R,ugm-3 (Ref.eq),51.41813,R,ugm-3,34.46827,R,ugm-3,113.30829,R,ugm-3
05-01-2023,13:00,16.136,R,ugm-3 (Ref.eq),39.45040,R,ugm-3,34.57355,R,ugm-3,95.06331,R,ugm-3
05-01-2023,14:00,15.169,R,ugm-3 (Ref.eq),26.55443,R,ugm-3,28.07632,R,ugm-3,68.79254,R,ugm-3
05-01-2023,15:00,15.169,R,ugm-3 (Ref.eq),31.12935,R,ugm-3,30.88192,R,ugm-3,78.61292,R,ugm-3
05-01-2023,16:00,14.203,R,ugm-3 (Ref.eq),40.90907,R,ugm-3,37.47147,R,ugm-3,100.19783,R,ugm-3
05-01-2023,17:00,19.034,R,ugm-3 (Ref.eq),27.38322,R,ugm-3,26.95507,R,ugm-3,68.94209,R,ugm-3
05-01-2023,18:00,16.136,R,ugm-3 (Ref.eq),20.35508,R,ugm-3,21.82936,R,ugm-3,53.04005,R,ugm-3
05-01-2023,19:00,16.136,R,ugm-3 (Ref.eq),16.67525,R,ugm-3,19.74498,R,ugm-3,45.31335,R,ugm-3
05-01-2023,20:00,19.034,R,ugm-3 (Ref.eq),12.49815,R,ugm-3,21.41406,R,ugm-3,40.57763,R,ugm-3
05-01-2023,21:00,17.102,R,ugm-3 (Ref.eq),9.51451,R,ugm-3,16.31809,R,ugm-3,30.90679,R,ugm-3
05-01-2023,22:00,15.169,R,ugm-3 (Ref.eq),10.67481,R,ugm-3,8.45731,R,ugm-3,24.82513,R,ugm-3
05-01-2023,23:00,19.034,R,ugm-3 (Ref.eq),3.67983,R,ugm-3,8.41528,R,ugm-3,14.05761,R,ugm-3
05-01-2023,24:00,13.237,R,ugm-3 (Ref.eq),1.92279,R,ugm-3,6.97184,R,ugm-3,9.92008,R,ugm-3
06-01-2023,01:00,12.271,R,ugm-3 (Ref.eq),0.97312,R,ugm-3,2.09979,R,ugm-3,3.59188,R,ugm-3
06-01-2023,02:00,8.406,R,ugm-3 (Ref.eq),4.29058,R,ugm-3,2.33440,R,ugm-3,8.91319,R,ugm-3
06-01-2023,03:00,17.102,R,ugm-3 (Ref.eq),3.48333,R,ugm-3,2.99014,R,ugm-3,8.33117,R,ugm-3
06-01-2023,04:00,12.271,R,ugm-3 (Ref.eq),0.59714,R,ugm-3,0.23180,R,ugm-3,1.14741,R,ugm-3
06-01-2023,05:00,17.102,R,ugm-3 (Ref.eq),1.09476,R,ugm-3,1.46429,R,ugm-3,3.14290,R,ugm-3
06-01-2023,06:00,14.203,R,ugm-3 (Ref.eq),3.05206,R,ugm-3,2.50401,R,ugm-3,7.18377,R,ugm-3
06-01-2023,07:00,10.338,R,ugm-3 (Ref.eq),7.16571,R,ugm-3,6.47328,R,ugm-3,17.46054,R,ugm-3
06-01-2023,08:00,14.203,R,ugm-3 (Ref.eq),25.61076,R,ugm-3,29.37559,R,ugm-3,68.64487,R,ugm-3
06-01-2023,09:00,24.831,R,ugm-3 (Ref.eq),88.04529,R,ugm-3,58.66146,R,ugm-3,193.66235,R,ugm-3
06-01-2023,10:00,31.595,R,ugm-3 (Ref.eq),98.92655,R,ugm-3,73.85506,R,ugm-3,225.54031,R,ugm-3
06-01-2023,11:00,37.392,R,ugm-3 (Ref.eq),82.63784,R,ugm-3,75.88259,R,ugm-3,202.59217,R,ugm-3
06-01-2023,12:00,45.122,R,ugm-3 (Ref.eq),104.10178,R,ugm-3,64.27353,R,ugm-3,223.89403,R,ugm-3
06-01-2023,13:00,23.865,R,ugm-3 (Ref.eq),60.97485,R,ugm-3,57.06630,R,ugm-3,150.55976,R,ugm-3
06-01-2023,14:00,31.595,R,ugm-3 (Ref.eq),63.52929,R,ugm-3,45.06780,R,ugm-3,142.47802,R,ugm-3
06-01-2023,15:00,37.392,R,ugm-3 (Ref.eq),91.29640,R,ugm-3,52.22977,R,ugm-3,192.21562,R,ugm-3
06-01-2023,16:00,34.493,R,ugm-3 (Ref.eq),106.85527,R,ugm-3,95.27198,R,ugm-3,259.11444,R,ugm-3
06-01-2023,17:00,38.358,R,ugm-3 (Ref.eq),167.49837,R,ugm-3,95.42671,R,ugm-3,352.25396,R,ugm-3
06-01-2023,18:00,36.426,R,ugm-3 (Ref.eq),80.18292,R,ugm-3,71.56501,R,ugm-3,194.51043,R,ugm-3
06-01-2023,19:00,20.967,R,ugm-3 (Ref.eq),32.44472,R,ugm-3,32.61599,R,ugm-3,82.36387,R,ugm-3
06-01-2023,20:00,17.102,R,ugm-3 (Ref.eq),18.80998,R,ugm-3,18.70100,R,ugm-3,47.54256,R,ugm-3
06-01-2023,21:00,11.305,R,ugm-3 (Ref.eq),15.95697,R,ugm-3,14.44506,R,ugm-3,38.91206,R,ugm-3
06-01-2023,22:00,8.406,R,ugm-3 (Ref.eq),11.24618,R,ugm-3,12.33925,R,ugm-3,29.58315,R,ugm-3
06-01-2023,23:00,7.440,R,ugm-3 (Ref.eq),10.31729,R,ugm-3,13.66375,R,ugm-3,29.48337,R,ugm-3
06-01-2023,24:00,8.406,R,ugm-3 (Ref.eq),10.21777,R,ugm-3,11.67120,R,ugm-3,27.33822,R,ugm-3
07-01-2023,01:00,9.372,R,ugm-3 (Ref.eq),3.23123,R,ugm-3,7.09406,R,ugm-3,12.04853,R,ugm-3
07-01-2023,02:00,7.440,R,ugm-3 (Ref.eq),8.67562,R,ugm-3,13.72356,R,ugm-3,27.02599,R,ugm-3
07-01-2023,03:00,7.440,R,ugm-3 (Ref.eq),3.18696,R,ugm-3,9.94108,R,ugm-3,14.82768,R,ugm-3
07-01-2023,04:00,6.474,R,ugm-3 (Ref.eq),3.85091,R,ugm-3,14.51462,R,ugm-3,20.41927,R,ugm-3
07-01-2023,05:00,5.507,R,ugm-3 (Ref.eq),5.64358,R,ugm-3,18.20620,R,ugm-3,26.85957,R,ugm-3
07-01-2023,06:00,10.338,R,ugm-3 (Ref.eq),21.57839,R,ugm-3,40.00358,R,ugm-3,73.08999,R,ugm-3
07-01-2023,07:00,10.338,R,ugm-3 (Ref.eq),32.00242,R,ugm-3,47.18544,R,ugm-3,96.25513,R,ugm-3
07-01-2023,08:00,16.136,R,ugm-3 (Ref.eq),61.01706,R,ugm-3,60.01068,R,ugm-3,153.56886,R,ugm-3
07-01-2023,09:00,17.102,R,ugm-3 (Ref.eq),79.84006,R,ugm-3,62.60181,R,ugm-3,185.02152,R,ugm-3
07-01-2023,10:00,16.136,R,ugm-3 (Ref.eq),119.44471,R,ugm-3,78.01093,R,ugm-3,261.15693,R,ugm-3
07-01-2023,11:00,17.102,R,ugm-3 (Ref.eq),55.07470,R,ugm-3,52.39734,R,ugm-3,136.84403,R,ugm-3
07-01-2023,12:00,20.000,R,ugm-3 (Ref.eq),90.03170,R,ugm-3,60.00523,R,ugm-3,198.05191,R,ugm-3
07-01-2023,13:00,15.169,R,ugm-3 (Ref.eq),55.40668,R,ugm-3,48.14395,R,ugm-3,133.09967,R,ugm-3
07-01-2023,14:00,16.136,R,ugm-3 (Ref.eq),29.81138,R,ugm-3,25.33293,R,ugm-3,71.04307,R,ugm-3
07-01-2023,15:00,17.102,R,ugm-3 (Ref.eq),32.06881,R,ugm-3,29.95940,R,ugm-3,79.13090,R,ugm-3
07-01-2023,16:00,16.136,R,ugm-3 (Ref.eq),33.33032,R,ugm-3,27.62572,R,ugm-3,78.73150,R,ugm-3
07-01-2023,17:00,17.102,R,ugm-3 (Ref.eq),31.80323,R,ugm-3,23.02767,R,ugm-3,71.79195,R,ugm-3
07-01-2023,18:00,18.068,R,ugm-3 (Ref.eq),17.69428,R,ugm-3,20.29776,R,ugm-3,47.42861,R,ugm-3
07-01-2023,19:00,11.305,R,ugm-3 (Ref.eq),10.29123,R,ugm-3,8.88321,R,ugm-3,24.66288,R,ugm-3
07-01-2023,20:00,13.237,R,ugm-3 (Ref.eq),8.99653,R,ugm-3,11.51742,R,ugm-3,25.31190,R,ugm-3
07-01-2023,21:00,13.237,R,ugm-3 (Ref.eq),8.99653,R,ugm-3,12.46599,R,ugm-3,26.26047,R,ugm-3
07-01-2023,22:00,14.203,R,ugm-3 (Ref.eq),3.25336,R,ugm-3,5.64558,R,ugm-3,10.63400,R,ugm-3
07-01-2023,23:00,9.372,R,ugm-3 (Ref.eq),4.11649,R,ugm-3,8.66559,R,ugm-3,14.97746,R,ugm-3
07-01-2023,24:00,16.136,R,ugm-3 (Ref.eq),2.82179,R,ugm-3,5.45859,R,ugm-3,9.78527,R,ugm-3
08-01-2023,01:00,22.899,R,ugm-3 (Ref.eq),1.90464,R,ugm-3,3.47479,R,ugm-3,6.39519,R,ugm-3
08-01-2023,02:00,20.967,R,ugm-3 (Ref.eq),1.90464,R,ugm-3,4.94035,R,ugm-3,7.86076,R,ugm-3
08-01-2023,03:00,16.136,R,ugm-3 (Ref.eq),2.42510,R,ugm-3,5.37474,R,ugm-3,9.09317,R,ugm-3
08-01-2023,04:00,23.865,R,ugm-3 (Ref.eq),1.59458,R,ugm-3,6.99791,R,ugm-3,9.44290,R,ugm-3
08-01-2023,05:00,20.967,R,ugm-3 (Ref.eq),0.63119,R,ugm-3,3.87855,R,ugm-3,4.84636,R,ugm-3
08-01-2023,06:00,21.933,R,ugm-3 (Ref.eq),2.19255,R,ugm-3,3.28314,R,ugm-3,6.64501,R,ugm-3
08-01-2023,07:00,14.203,R,ugm-3 (Ref.eq),0.99662,R,ugm-3,3.26827,R,ugm-3,4.79640,R,ugm-3
08-01-2023,08:00,10.338,R,ugm-3 (Ref.eq),5.84681,R,ugm-3,7.87237,R,ugm-3,16.83735,R,ugm-3
08-01-2023,09:00,12.271,R,ugm-3 (Ref.eq),6.21223,R,ugm-3,9.76022,R,ugm-3,19.28551,R,ugm-3
08-01-2023,10:00,11.305,R,ugm-3 (Ref.eq),10.06581,R,ugm-3,14.34360,R,ugm-3,29.77762,R,ugm-3
08-01-2023,11:00,10.338,R,ugm-3 (Ref.eq),11.79328,R,ugm-3,22.98637,R,ugm-3,41.06914,R,ugm-3
08-01-2023,12:00,18.068,R,ugm-3 (Ref.eq),11.95938,R,ugm-3,14.53784,R,ugm-3,32.87529,R,ugm-3
08-01-2023,13:00,18.068,R,ugm-3 (Ref.eq),16.61025,R,ugm-3,24.99339,R,ugm-3,50.46208,R,ugm-3
08-01-2023,14:00,12.271,R,ugm-3 (Ref.eq),24.94859,R,ugm-3,42.83509,R,ugm-3,81.08906,R,ugm-3
08-01-2023,15:00,13.237,R,ugm-3 (Ref.eq),34.48287,R,ugm-3,43.10487,R,ugm-3,95.97787,R,ugm-3
08-01-2023,16:00,15.169,R,ugm-3 (Ref.eq),46.80768,R,ugm-3,48.38893,R,ugm-3,120.15970,R,ugm-3
08-01-2023,17:00,18.068,R,ugm-3 (Ref.eq),31.72557,R,ugm-3,30.79510,R,ugm-3,79.44030,R,ugm-3
08-01-2023,18:00,14.203,R,ugm-3 (Ref.eq),20.23128,R,ugm-3,29.08397,R,ugm-3,60.10483,R,ugm-3
08-01-2023,19:00,13.237,R,ugm-3 (Ref.eq),32.75541,R,ugm-3,44.55451,R,ugm-3,94.77877,R,ugm-3
08-01-2023,20:00,15.169,R,ugm-3 (Ref.eq),24.18452,R,ugm-3,36.21251,R,ugm-3,73.29492,R,ugm-3
08-01-2023,21:00,20.000,R,ugm-3 (Ref.eq),27.10792,R,ugm-3,40.97307,R,ugm-3,82.53797,R,ugm-3
08-01-2023,22:00,11.305,R,ugm-3 (Ref.eq),16.74313,R,ugm-3,27.38769,R,ugm-3,53.06013,R,ugm-3
08-01-2023,23:00,19.034,R,ugm-3 (Ref.eq),9.96615,R,ugm-3,14.54637,R,ugm-3,29.82758,R,ugm-3
08-01-2023,24:00,8.406,R,ugm-3 (Ref.eq),5.14918,R,ugm-3,8.89209,R,ugm-3,16.78738,R,ugm-3
09-01-2023,01:00,10.338,R,ugm-3 (Ref.eq),3.54597,R,ugm-3,5.56294,R,ugm-3,11.00001,R,ugm-3
09-01-2023,02:00,10.338,R,ugm-3 (Ref.eq),3.76759,R,ugm-3,2.88978,R,ugm-3,8.66668,R,ugm-3
09-01-2023,03:00,9.372,R,ugm-3 (Ref.eq),2.46002,R,ugm-3,2.12803,R,ugm-3,5.90001,R,ugm-3
09-01-2023,04:00,7.440,R,ugm-3 (Ref.eq),0.86433,R,ugm-3,2.87472,R,ugm-3,4.20001,R,ugm-3
09-01-2023,05:00,6.474,R,ugm-3 (Ref.eq),1.23001,R,ugm-3,9.51403,R,ugm-3,11.40001,R,ugm-3
09-01-2023,06:00,8.406,R,ugm-3 (Ref.eq),4.48787,R,ugm-3,12.21872,R,ugm-3,19.10002,R,ugm-3
09-01-2023,07:00,12.271,R,ugm-3 (Ref.eq),12.30008,R,ugm-3,22.04018,R,ugm-3,40.90004,R,ugm-3
09-01-2023,08:00,12.271,R,ugm-3 (Ref.eq),53.52197,R,ugm-3,52.98425,R,ugm-3,135.05013,R,ugm-3
09-01-2023,09:00,15.169,R,ugm-3 (Ref.eq),56.18145,R,ugm-3,37.60643,R,ugm-3,123.75012,R,ugm-3
09-01-2023,10:00,14.203,R,ugm-3 (Ref.eq),53.88765,R,ugm-3,57.82356,R,ugm-3,140.45013,R,ugm-3
09-01-2023,11:00,11.305,R,ugm-3 (Ref.eq),43.68191,R,ugm-3,38.92211,R,ugm-3,105.90010,R,ugm-3
09-01-2023,12:00,17.102,R,ugm-3 (Ref.eq),33.80860,R,ugm-3,37.16096,R,ugm-3,89.00009,R,ugm-3
09-01-2023,13:00,17.102,R,ugm-3 (Ref.eq),40.52378,R,ugm-3,34.66450,R,ugm-3,96.80009,R,ugm-3
09-01-2023,14:00,14.203,R,ugm-3 (Ref.eq),43.74839,R,ugm-3,34.57016,R,ugm-3,101.65010,R,ugm-3
09-01-2023,15:00,19.034,R,ugm-3 (Ref.eq),47.37193,R,ugm-3,41.86416,R,ugm-3,114.50011,R,ugm-3
09-01-2023,16:00,12.271,R,ugm-3 (Ref.eq),55.94874,R,ugm-3,42.21324,R,ugm-3,128.00012,R,ugm-3
09-01-2023,17:00,20.000,R,ugm-3 (Ref.eq),54.95144,R,ugm-3,49.09243,R,ugm-3,133.35013,R,ugm-3
09-01-2023,18:00,19.034,R,ugm-3 (Ref.eq),54.38630,R,ugm-3,51.20896,R,ugm-3,134.60013,R,ugm-3
09-01-2023,19:00,16.136,R,ugm-3 (Ref.eq),31.58129,R,ugm-3,41.17612,R,ugm-3,89.60009,R,ugm-3
09-01-2023,20:00,15.169,R,ugm-3 (Ref.eq),30.05209,R,ugm-3,27.72084,R,ugm-3,73.80007,R,ugm-3
09-01-2023,21:00,15.169,R,ugm-3 (Ref.eq),22.43934,R,ugm-3,28.14356,R,ugm-3,62.55006,R,ugm-3
09-01-2023,22:00,16.136,R,ugm-3 (Ref.eq),32.91103,R,ugm-3,39.38722,R,ugm-3,89.85009,R,ugm-3
09-01-2023,23:00,19.034,R,ugm-3 (Ref.eq),13.53009,R,ugm-3,25.05420,R,ugm-3,45.80004,R,ugm-3
09-01-2023,24:00,22.899,R,ugm-3 (Ref.eq),12.43305,R,ugm-3,20.43629,R,ugm-3,39.50004,R,ugm-3
10-01-2023,01:00,16.136,R,ugm-3 (Ref.eq),7.36297,R,ugm-3,14.59641,R,ugm-3,25.88614,R,ugm-3
10-01-2023,02:00,18.068,R,ugm-3 (Ref.eq),5.50005,R,ugm-3,9.91385,R,ugm-3,18.34714,R,ugm-3
10-01-2023,03:00,19.034,R,ugm-3 (Ref.eq),1.39719,R,ugm-3,8.46565,R,ugm-3,10.60798,R,ugm-3
10-01-2023,04:00,17.102,R,ugm-3 (Ref.eq),4.25810,R,ugm-3,13.03572,R,ugm-3,19.56472,R,ugm-3
10-01-2023,05:00,11.305,R,ugm-3 (Ref.eq),5.45569,R,ugm-3,7.49665,R,ugm-3,15.86193,R,ugm-3
10-01-2023,06:00,7.440,R,ugm-3 (Ref.eq),7.48495,R,ugm-3,11.34041,R,ugm-3,22.81717,R,ugm-3
10-01-2023,07:00,6.474,R,ugm-3 (Ref.eq),14.07170,R,ugm-3,20.50536,R,ugm-3,42.08166,R,ugm-3
10-01-2023,08:00,7.440,R,ugm-3 (Ref.eq),60.24550,R,ugm-3,53.93493,R,ugm-3,146.31007,R,ugm-3
10-01-2023,09:00,16.136,R,ugm-3 (Ref.eq),149.23319,R,ugm-3,95.77315,R,ugm-3,324.59419,R,ugm-3
10-01-2023,10:00,14.203,R,ugm-3 (Ref.eq),144.50936,R,ugm-3,76.39624,R,ugm-3,297.97416,R,ugm-3
10-01-2023,11:00,11.305,R,ugm-3 (Ref.eq),85.36165,R,ugm-3,61.05836,R,ugm-3,191.94440,R,ugm-3
10-01-2023,12:00,9.372,R,ugm-3 (Ref.eq),45.87440,R,ugm-3,31.23664,R,ugm-3,101.57642,R,ugm-3
10-01-2023,13:00,6.474,R,ugm-3 (Ref.eq),33.99829,R,ugm-3,26.32904,R,ugm-3,78.45902,R,ugm-3
10-01-2023,14:00,5.507,R,ugm-3 (Ref.eq),44.51048,R,ugm-3,32.82759,R,ugm-3,101.07604,R,ugm-3
10-01-2023,15:00,3.575,R,ugm-3 (Ref.eq),46.24033,R,ugm-3,30.37533,R,ugm-3,101.27619,R,ugm-3
10-01-2023,16:00,5.507,R,ugm-3 (Ref.eq),38.22312,R,ugm-3,27.80704,R,ugm-3,86.41501,R,ugm-3
10-01-2023,17:00,10.338,R,ugm-3 (Ref.eq),28.80873,R,ugm-3,26.08009,R,ugm-3,70.25285,R,ugm-3
10-01-2023,18:00,10.338,R,ugm-3 (Ref.eq),28.37626,R,ugm-3,26.24281,R,ugm-3,69.75247,R,ugm-3
10-01-2023,19:00,13.237,R,ugm-3 (Ref.eq),35.22915,R,ugm-3,28.89510,R,ugm-3,82.91237,R,ugm-3
10-01-2023,20:00,11.305,R,ugm-3 (Ref.eq),9.18153,R,ugm-3,13.19236,R,ugm-3,27.27052,R,ugm-3
10-01-2023,21:00,12.271,R,ugm-3 (Ref.eq),8.78234,R,ugm-3,11.10242,R,ugm-3,24.56848,R,ugm-3
10-01-2023,22:00,16.136,R,ugm-3 (Ref.eq),8.71580,R,ugm-3,13.90647,R,ugm-3,27.27052,R,ugm-3
10-01-2023,23:00,15.169,R,ugm-3 (Ref.eq),5.78836,R,ugm-3,9.13819,R,ugm-3,18.01355,R,ugm-3
10-01-2023,24:00,16.136,R,ugm-3 (Ref.eq),2.36192,R,ugm-3,2.98341,R,ugm-3,6.60497,R,ugm-3
11-01-2023,01:00,11.305,R,ugm-3 (Ref.eq),1.59789,R,ugm-3,1.22212,R,ugm-3,3.67218,R,ugm-3
11-01-2023,02:00,13.237,R,ugm-3 (Ref.eq),1.81982,R,ugm-3,3.95311,R,ugm-3,6.74347,R,ugm-3
11-01-2023,03:00,13.237,R,ugm-3 (Ref.eq),0.96539,R,ugm-3,3.82773,R,ugm-3,5.30798,R,ugm-3
11-01-2023,04:00,18.068,R,ugm-3 (Ref.eq),0.93210,R,ugm-3,2.82719,R,ugm-3,4.25640,R,ugm-3
11-01-2023,05:00,4.541,R,ugm-3 (Ref.eq),1.19842,R,ugm-3,3.47043,R,ugm-3,5.30798,R,ugm-3
11-01-2023,06:00,10.338,R,ugm-3 (Ref.eq),3.32894,R,ugm-3,5.71195,R,ugm-3,10.81625,R,ugm-3
11-01-2023,07:00,16.136,R,ugm-3 (Ref.eq),7.88959,R,ugm-3,10.53681,R,ugm-3,22.63401,R,ugm-3
11-01-2023,08:00,13.237,R,ugm-3 (Ref.eq),19.20798,R,ugm-3,27.73410,R,ugm-3,57.18592,R,ugm-3
11-01-2023,09:00,13.237,R,ugm-3 (Ref.eq),33.52242,R,ugm-3,39.03556,R,ugm-3,90.43588,R,ugm-3
11-01-2023,10:00,10.338,R,ugm-3 (Ref.eq),33.82202,R,ugm-3,28.86157,R,ugm-3,80.72128,R,ugm-3
11-01-2023,11:00,9.372,R,ugm-3 (Ref.eq),28.39585,R,ugm-3,36.83106,R,ugm-3,80.37076,R,ugm-3
11-01-2023,12:00,16.136,R,ugm-3 (Ref.eq),22.33718,R,ugm-3,30.79787,R,ugm-3,65.04773,R,ugm-3
11-01-2023,13:00,12.271,R,ugm-3 (Ref.eq),35.28676,R,ugm-3,29.06937,R,ugm-3,83.17497,R,ugm-3
11-01-2023,14:00,7.440,R,ugm-3 (Ref.eq),27.13086,R,ugm-3,34.11370,R,ugm-3,75.71376,R,ugm-3
11-01-2023,15:00,13.237,R,ugm-3 (Ref.eq),54.82763,R,ugm-3,34.10970,R,ugm-3,118.17756,R,ugm-3
11-01-2023,16:00,,,,,,,,,,,,
11-01-2023,17:00,18.068,R,ugm-3 (Ref.eq),36.88465,R,ugm-3,39.68894,R,ugm-3,96.24461,R,ugm-3
11-01-2023,18:00,27.730,R,ugm-3 (Ref.eq),37.05109,R,ugm-3,35.72816,R,ugm-3,92.53904,R,ugm-3
11-01-2023,19:00,26.764,R,ugm-3 (Ref.eq),20.33982,R,ugm-3,25.99863,R,ugm-3,57.18592,R,ugm-3